SCP
0 0 0 0 0 0 -0 0 0 0 0 0 0 0 0 0 0 0 0 0 0 0 0 0 0 0 0 0 0 0 0 0 0 0 0 0 0 0 0 0 0 0 0 0
0 0 0 0 0 0 0 0 0 0 0 0 0 0 0 0 0 0 0 0 0 0 0 0 0 0 0 0 0 0 0 0 0 0 0 0 0 0 0 0 0 0 0 0
0 0 0 0 0 0 0 0 0 0 0 0 0 0 0 0 0 0 0 0 0 0 0 0 0 0 0 0 0 0 0 0 0 0 0 0 0 0 0 0 0 0 0 0
0 0 0 0 0 0 0 0 0 0 0 0 0 0 0 0 0 0 0 0 0 0 0 0 0 0 0 0 0 0 0 0 0 0 0 0 0 0 0 0 0 0 0 0
0 0 0 0 0 0 0 0 0 0 0 0 0 0 0 0 0 0 0 0 0 0 0 0 0 0 0 0 0 0 0 0 0 0 0 0 0 0 0 0 0 0 0 0
0 0 0 0 0 0 0 0 0 0 0 0 0 0 0 0 0 0 0 0 0 0 0 0 0 0 0 0 0 0 -0 -0 0 0 0 0 0 0 0 0 0 0 0 0
0 0 0 0 0 0 0 0 0 0 0 0 0 0 0 0 0 0 0 0 0 0 0 0 0 0 0 0 0 0 -0 -0 -0 0 0 0 0 0 0 0 0 0 0 0
0 0 0 0 0 0 0 0 0 0 0 0 0 0 0 0 0 0 0 0 0 0 0 0 0 0 0 0 0 0 0 -0 -0 0 0 0 0 0 0 0 0 0 0 0
0 0 0 0 0 0 0 0 0 0 0 0 0 0 0 0 0 0 0 0 0 0 0 0 0 0 0 0 0 0 0 0 0 0 0 0 0 0 0 0 0 0 0 0
0 0 0 0 0 0 0 0 0 0 0 0 0 0 0 0 0 0 0 0 0 0 0 0 0 0 0 0 0 0 0 0 0 0 0 0 0 0 0 0 0 0 0 0
0 0 0 0 0 0 0 0 0 0 0 0 0 0 0 0 0 0 0 0 0 0 0 0 0 0 0 0 0 0 0 0 0 0 0 0 0 0 0 0 0 0 0 0
0 0 0 0 -0 -0 -0 -0 0 0 0 0 0 0 0 0 0 0 0 0 0 0 0 0 0 0 0 0 0 0 0 0 0 0 0 0 0 0 0 0 0 0 0 0
0 0 -0 0 -0 -0 -0 -0 0 0 0 0 0 0 0 0 0 0 0 0 0 0 0 0 0 0 0 0 0 0 0 0 0 0 0 0 0 0 0 0 0 0 0 0
-0 -0 -0 0 0 -0 -0 -0 0 0 0 0 0 0 0 0 0 0 0 0 0 0 0 0 0 0 0 0 0 0 0 0 0 0 0 0 0 0 0 0 0 0 0 0
-0 -0 -0 0 0 0 0 0 0 0 0 0 0 0 0 0 0 0 0 0 0 0 0 0 0 0 0 0 0 0 0 0 0 0 0 0 0 0 0 0 0 0 0 0
-0 -0 0 0 0 0 0 0 0 0 0 0 0 0 0 0 0 0 0 0 0 0 0 0 0 0 0 0 0 0 0 0 0 0 0 0 0 0 0 0 0 0 0 0
0 0 0 0 0 0 0 0 0 0 0 0 0 0 0 0 0 0 0 0 0 0 0 0 0 0 0 0 0 0 0 0 0 0 0 0 0 0 0 0 0 0 0 0
0 0 0 0 0 0 0 0 0 0 0 0 0 0 0 0 0 0 0 0 0 0 0 0 0 0 0 0 0 0 0 0 0 0 0 0 0 0 0 0 0 0 0 0
0 0 0 0 0 0 0 0 0 0 0 0 0 0 0 0 0 0 0 0 0 0 0 0 0 0 0 0 0 0 0 0 0 0 0 0 0 0 0 0 0 0 0 0
0 0 0 0 0 0 0 0 0 0 0 0 0 0 0 0 0 0 0 0 0 0 0 0 0 0 0 0 0 0 0 0 0 0 0 0 0 0 0 0 0 0 0 0
0 0 0 0 0 0 0 0 0 0 0 0 0 0 0 0 0 0 0 0 0 0 0 0 0 0 0 0 0 0 0 0 0 0 0 0 0 0 0 0 0 0 0 0
0 0 0 0 0 0 0 0 0 0 0 0 0 0 0 0 0 0 0 0 0 0 0 0 0 0 0 0 0 0 0 0 0 0 0 0 0 0 0 0 0 0 0 0
0 0 0 0 0 0 0 0 0 0 0 0 0 0 0 0 0 0 0 0 0 0 0 0 0 0 0 0 0 0 0 0 0 0 0 0 0 0 0 0 0 0 0 0
0 0 0 0 0 0 0 0 0 0 0 0 0 0 0 0 0 0 0 0 0 0 0 0 0 0 0 0 0 0 0 0 0 0 0 0 0 0 0 0 0 0 0 0
0 0 0 0 0 0 0 0 0 0 0 0 0 0 0 0 0 0 0 0 0 0 0 0 0 0 0 0 0 0 0 0 0 0 0 0 0 0 0 0 0 0 0 0
0 0 0 0 0 0 0 0 0 0 0 0 0 0 0 0 0 0 0 0 0 0 0 0 0 0 0 0 0 0 0 0 0 0 0 0 0 0 0 0 0 0 0 0
0 -0 -0 -0 -0 0 0 0 0 0 0 0 0 0 0 0 0 0 0 0 0 0 0 0 0 0 0 0 0 0 0 0 0 0 0 0 0 0 0 0 0 0 0 0
Wind_Speed
7 7 4 7 8 8 10 10 10 11 12 12 6 6 5 4 3 3 3 4 4 3 3 2 2 1 1 1 1 1 2 1 1 1 1 1 1 1 1 1 1 1 1 1
6 6 6 8 9 10 10 9 11 11 14 9 4 3 3 4 5 5 4 4 4 4 3 3 3 2 2 1 1 1 2 1 1 1 1 1 1 1 1 1 1 1 1 1
5 4 3 8 9 9 7 7 8 12 13 4 3 5 6 6 6 6 5 5 4 4 4 4 3 3 3 2 1 2 2 1 1 1 1 1 1 1 1 1 1 1 1 1
2 0 7 8 3 5 7 8 8 8 7 5 5 4 4 5 6 5 5 5 4 4 3 3 2 2 2 2 2 2 2 1 1 1 1 0 1 0 1 1 1 1 1 1
2 3 7 7 3 3 5 7 6 9 7 3 1 2 3 3 4 5 5 4 4 3 3 2 3 3 2 1 1 2 2 2 2 2 1 1 0 0 1 1 1 1 1 1
3 3 6 6 4 1 2 6 4 4 5 2 2 1 5 3 2 2 2 2 2 2 2 2 2 2 2 1 1 2 3 2 2 2 2 1 1 1 1 1 1 1 1 1
4 5 8 6 3 2 2 7 5 3 4 3 4 5 3 1 1 1 1 1 2 2 2 2 2 2 2 2 2 2 2 2 1 1 2 1 1 1 1 1 1 1 1 2
3 4 8 2 2 3 6 5 4 3 3 3 3 2 2 2 1 1 1 1 2 2 1 0 1 2 2 2 2 1 1 2 1 1 1 1 1 1 1 0 0 1 1 2
8 8 5 4 5 5 4 5 5 4 3 2 2 2 2 2 2 1 1 1 2 2 1 0 0 2 2 2 1 1 1 2 1 1 0 1 1 1 0 0 1 1 1 1
5 8 8 7 5 5 4 6 6 4 3 3 3 3 2 2 2 1 1 1 1 2 2 1 0 0 1 1 1 1 1 1 1 1 1 0 0 1 1 1 1 1 1 2
6 8 7 5 5 6 6 5 4 4 3 4 4 3 3 2 2 2 1 1 2 2 2 1 0 0 1 1 1 1 1 1 1 1 1 0 0 1 2 2 3 2 2 2
8 7 6 7 5 5 5 5 5 4 2 2 3 3 3 2 2 2 2 1 1 1 1 1 1 1 1 1 1 2 1 1 1 1 1 1 0 1 2 2 3 4 4 3
8 6 5 6 5 4 4 4 4 3 3 2 1 2 3 2 1 2 2 2 2 2 2 1 1 1 2 1 2 2 2 2 1 1 1 1 1 1 1 2 3 3 4 4
5 3 4 5 5 4 3 3 2 2 0 1 1 2 2 1 1 2 2 2 2 2 1 2 2 2 2 1 2 2 2 2 2 1 1 1 1 1 1 1 2 2 3 4
5 4 5 4 3 3 2 1 2 1 1 1 1 1 2 2 2 2 2 1 1 1 2 2 2 2 2 1 1 2 2 1 1 1 1 1 1 1 1 1 1 2 2 3
4 3 3 2 3 3 2 1 1 1 1 0 0 0 1 1 1 1 1 1 2 3 3 3 3 3 2 1 1 1 2 2 1 1 1 1 1 1 1 1 1 1 2 2
3 4 3 3 3 2 2 2 2 2 1 1 1 1 0 1 0 0 1 1 2 3 3 3 3 2 2 2 2 2 1 2 2 1 1 1 1 2 1 1 2 2 2 3
5 5 4 4 3 3 3 2 1 1 2 1 1 1 1 1 1 2 2 1 1 2 2 2 2 2 1 1 1 1 1 2 2 2 1 2 1 1 1 2 2 2 2 3
2 2 2 2 2 2 2 2 2 1 1 1 1 1 1 2 2 2 1 1 1 2 2 2 2 1 1 2 1 1 1 2 1 1 1 2 2 1 1 1 2 2 2 2
2 2 1 1 1 1 1 1 1 1 1 1 1 1 1 2 1 1 1 2 3 3 2 2 1 1 1 2 1 1 2 2 2 1 1 1 1 1 2 2 2 2 2 2
2 2 1 1 2 1 1 1 1 1 1 1 2 2 2 2 1 1 2 2 3 2 2 2 1 1 2 2 2 1 1 2 2 2 2 2 2 2 2 2 2 2 2 2
2 2 2 1 1 2 2 1 1 1 1 1 1 1 1 1 1 2 3 3 2 2 1 1 2 2 2 2 1 1 1 2 2 1 2 2 2 2 2 2 2 2 2 2
2 2 2 1 1 2 2 1 1 1 1 2 2 2 2 2 2 2 2 2 1 2 1 2 3 3 2 1 1 2 2 2 2 2 2 2 2 2 2 2 2 2 2 2
2 1 1 1 1 1 1 2 1 1 1 2 2 2 2 1 2 2 2 3 3 2 1 2 3 2 1 1 1 1 2 2 2 2 2 1 1 2 2 2 2 2 2 2
2 2 1 1 1 2 2 1 1 1 1 1 2 2 2 2 2 2 1 2 2 2 1 1 2 1 1 1 1 1 1 1 1 1 1 1 1 1 2 2 2 2 2 2
1 2 2 2 2 2 1 1 1 1 1 1 1 1 1 1 1 1 1 1 1 1 1 1 1 1 0 0 0 1 1 1 1 1 1 1 1 1 1 2 2 2 2 2
1 1 1 1 1 1 1 1 1 2 2 1 2 1 1 1 1 0 0 0 0 0 0 0 0 0 0 0 0 0 0 1 1 1 1 1 1 1 1 2 2 2 2 2
Wind_Direction
264 270 243 242 244 226 220 222 227 246 249 258 248 238 237 222 204 194 196 196 197 196 209 208 212 219 207 208 158 135 134 141 174 172 150 146 159 164 154 175 195 198 211 259
275 270 255 265 255 237 234 234 240 256 265 264 254 231 232 222 203 203 211 211 209 206 202 204 209 208 204 206 210 168 154 170 173 145 140 147 165 154 147 197 210 192 217 241
263 289 304 267 240 221 220 219 214 238 251 253 251 232 221 221 209 207 216 218 214 212 210 208 205 196 202 202 207 188 176 175 169 154 143 157 166 143 183 225 207 225 234 234
248 330 237 249 243 214 221 241 231 244 258 241 234 241 241 221 203 211 215 216 220 217 213 206 192 189 190 181 187 183 173 173 166 151 156 139 133 172 231 227 221 227 238 246
202 232 269 292 277 212 211 261 245 244 258 267 271 3 294 241 206 208 210 212 212 206 195 183 182 176 163 168 174 168 178 191 188 180 179 179 198 262 269 249 260 248 246 241
198 219 242 263 283 275 131 284 284 245 246 235 147 233 259 241 202 208 202 192 186 168 156 166 182 159 149 172 178 188 196 201 195 186 183 203 223 244 258 243 263 280 277 256
219 234 260 271 295 90 162 265 299 250 225 211 213 225 226 204 203 195 185 170 150 151 169 186 170 148 161 187 219 222 193 186 192 193 197 211 222 235 237 257 304 301 296 284
196 220 254 271 111 193 244 281 286 266 243 227 229 219 190 191 188 166 161 153 143 144 159 177 151 149 176 227 248 223 175 171 186 197 206 186 172 239 240 202 230 290 308 309
202 225 257 225 227 248 259 270 271 257 253 217 211 218 211 207 202 181 162 160 138 142 137 85 134 156 188 238 237 184 142 147 161 177 179 166 181 200 234 231 233 267 277 294
254 264 269 266 265 276 269 264 266 255 244 214 216 216 218 208 202 192 170 161 143 137 148 194 261 149 208 226 217 162 159 157 156 161 159 163 205 200 207 222 233 250 258 269
255 274 292 280 263 271 284 283 279 278 249 210 190 212 214 206 201 195 196 174 151 159 177 211 219 240 236 208 178 172 169 163 161 168 172 183 260 245 236 238 233 236 238 236
243 250 251 272 278 278 281 284 279 272 275 237 189 196 195 196 201 186 183 168 155 162 180 219 234 253 251 206 175 181 180 183 187 181 185 193 236 319 306 271 286 284 278 269
250 267 259 274 288 289 283 287 289 271 238 233 218 176 172 177 176 162 170 177 186 195 201 212 227 249 256 216 179 186 204 214 203 197 197 217 240 256 311 333 328 312 304 299
261 265 272 273 275 285 287 294 309 315 287 177 159 133 131 133 149 171 197 211 201 196 207 215 225 248 255 225 189 192 204 220 215 208 207 216 229 237 247 279 314 321 318 314
269 247 245 267 285 299 313 346 15 1 30 43 78 118 139 156 196 225 226 205 182 191 217 221 232 250 247 225 207 207 210 214 212 206 207 210 220 229 239 256 272 290 308 312
289 291 269 268 278 297 331 349 314 285 278 103 79 141 174 180 211 246 226 192 193 219 231 228 237 247 245 223 220 222 219 220 217 198 200 212 218 222 235 246 261 270 284 291
281 284 280 282 278 284 282 268 249 251 248 221 227 219 114 87 58 304 287 269 249 249 246 237 244 254 247 234 222 221 217 211 220 223 220 222 222 226 235 242 257 272 277 279
247 250 248 246 247 254 273 277 269 263 252 240 170 138 151 184 234 263 278 303 320 311 282 258 250 242 237 238 234 221 212 213 210 214 224 230 233 228 235 249 259 271 284 293
294 283 272 261 246 237 255 271 273 265 264 188 172 211 246 256 263 271 280 264 256 273 278 274 268 256 243 240 236 206 202 208 221 226 220 234 245 240 241 251 261 268 274 284
327 323 318 311 301 264 267 279 273 272 261 202 187 216 262 272 265 263 246 248 247 251 261 264 257 249 243 239 239 205 203 208 212 220 228 225 226 240 247 253 259 265 269 275
304 306 310 312 315 307 276 249 225 251 269 211 202 221 242 263 256 240 230 259 270 267 257 251 241 236 234 231 227 199 202 204 210 216 225 229 234 244 252 258 263 265 265 271
296 297 301 303 307 315 316 304 247 241 262 261 250 238 240 264 271 270 251 245 253 270 266 233 238 245 246 228 186 195 208 208 212 222 229 233 237 245 255 261 262 266 266 269
290 287 293 291 281 295 323 325 280 240 238 245 245 241 243 253 250 247 271 267 257 264 264 243 256 254 247 203 191 202 211 213 216 221 229 235 236 240 253 258 260 264 267 272
293 294 289 286 281 291 298 299 298 281 263 267 260 250 242 257 274 259 259 267 276 280 264 260 263 251 217 189 202 211 219 221 222 224 230 236 245 253 256 258 264 269 270 273
277 279 275 262 256 258 264 282 312 309 300 298 294 285 266 248 250 259 259 257 266 284 294 275 270 266 236 209 212 222 226 227 224 217 229 240 247 252 259 263 266 271 274 275
272 267 265 261 255 253 257 256 266 277 280 292 304 309 305 296 276 269 262 269 273 294 303 275 262 276 257 235 256 252 238 251 264 260 251 252 254 255 263 273 277 277 278 280
280 275 277 286 276 248 241 241 244 255 252 246 274 291 295 305 314 319 303 287 297 297 300 306 312 305 296 274 276 280 269 273 271 263 255 259 264 264 267 271 277 282 286 287